Track SPACE STATION now! 10-day predictions The ISS Notification Tool HD Live streaming from Space Station SPACE STATION is classified as:
1 25544U 98067A 25171.56774788 .00004070 00000-0 78879-4 0 9992 2 25544 51.6378 290.3198 0001961 257.4405 196.4094 15.50135141515682